Location: Altoona
(40.5167°N, 78.4000°W)
Time: 18:22:23
(UTC-04:00)

ATLAS 2AS CENTAUR R/B - Pass Details

Date: 21 August 2017
Orbit: 906 x 1306 km, 63.7° (Epoch: 21 September)

Event Time Altitude Azimuth Distance (km) Brightness Sun altitude
Rises 22:19:07 0° 233° (SW) 4,083 5.9 -23.6°
Reaches altitude 10° 22:21:54 10° 239° (WSW) 3,171 5.3 -24.0°
Maximum altitude 22:29:21 49° 313° (NW) 1,602 3.9 -25.0°
Drops below altitude 10° 22:37:14 10° 27° (NNE) 3,329 5.5 -26.1°
Sets 22:40:14 0° 33° (NNE) 4,301 6.0 -26.5°
